#timestamp,LO_Frequency,Hit,StdDev 
1584199935.4,286047008.5,P
1584199955.3,286047010.6,P
1584199975.1,286047007.9,P
1584199976.0,286047007.9,Y
1584199995.8,286047002.3,P
1584200015.7,286047002.5,N
1584200035.5,286046999.9,N
1584200055.4,286047002.6,N
1584200075.2,286047002.1,N
1584200095.0,286047000.3,N
1584200095.9,286047000.3,N
1584200115.8,286047000.1,N
1584200135.6,286047001.7,N
1584200155.4,286047001.8,N
1584200175.3,286047003.9,N
1584200195.1,286047003.1,N
1584200215.9,286047003.1,N
1584200235.7,286047005.5,N
1584200255.5,286047005.3,N
1584200275.4,286047005.1,N
1584200295.2,286047004.6,N
1584200315.0,286047006.3,N
1584200315.9,286047006.3,N
1584200335.8,286047006.4,N
1584200355.6,286047009.2,Y
1584200375.5,286047003.5,P
1584200395.3,286047005.7,P
1584200415.1,286047003.3,P
1584200435.9,286047001.7,N
1584200455.7,286047000.3,N
1584200475.5,286047002.7,N
1584200495.4,286046998.9,N
1584200515.2,286046995.0,N
1584200535.1,286046995.4,N
1584200536.0,286046995.4,N
1584200555.8,286046993.6,N
1584200575.6,286046994.8,N
1584200595.5,286046994.8,N
1584200615.3,286046993.7,N
1584200635.1,286046995.4,N
1584200655.9,286046997.3,N
1584200675.7,286046999.8,N
1584200695.6,286047001.9,N
1584200715.4,286047001.7,N
1584200735.2,286047002.7,N
1584200755.1,286047001.4,N
1584200756.0,286047001.4,N
1584200775.8,286046999.7,N
1584200795.6,286047001.8,N
1584200815.5,286047001.9,N
1584200835.3,286047002.8,N
1584200855.2,286046999.7,N
1584200875.9,286047002.2,N
1584200895.7,286047003.2,N
1584200915.6,286047005.4,N
1584200935.4,286047003.3,N
1584200955.2,286047003.1,N
1584200975.1,286047005.1,N
1584200976.0,286047005.1,N
1584200995.8,286047005.7,N
1584201015.7,286047004.7,N
1584201035.5,286047006.8,N
1584201055.3,286047008.5,N
1584201075.2,286047006.6,N
1584201095.0,286047008.0,N
1584201095.9,286047008.0,N
1584201115.8,286047010.3,N
1584201135.6,286047009.9,N
1584201155.4,286047010.7,N
1584201175.3,286047009.6,N
1584201195.1,286047011.2,Y
1584201215.8,286047006.2,P
1584201235.7,286047005.1,P
1584201255.5,286047006.0,P
1584201275.4,286047004.9,Y
1584201295.2,286047000.3,P
1584201315.0,286047000.3,N
1584201315.9,286047000.3,N
1584201335.8,286047001.0,N
1584201355.6,286047000.5,N
1584201375.5,286046998.5,N
1584201395.3,286046998.6,N
1584201415.1,286047002.5,N
1584201435.9,286047003.5,N
1584201455.7,286047003.4,N
1584201475.5,286047005.4,N
1584201495.4,286047006.4,N
1584201515.2,286047010.7,Y
1584201535.1,286047009.0,P
1584201536.0,286047009.0,N
1584201555.8,286047008.7,N
1584201575.6,286047007.0,N
1584201595.5,286047004.3,N
